Wind from 183 at 8 knots gusting 15

Air temperature 60.0° C
Dewpoint 59.8° C

Last reported at 2014-Apr-18 08:55 UTC.
Time now 2014-Apr-18 10:41 UTC

Location: N 56°18' W 132°51'.
View on Google Maps.

See reports from other nearby stations

Tides Stations Pressure Air Temp Water Temp Dewpoint Dewpoint depression Visibility Wind Speed Wind Dir Waves Ship positions

  
sailing weather and tide predictions

ZAREMBO AK US weather

date/time (UTC)wind fromknots sea level pressurealtimeterstation pressurevisibilityair tempwater tempwave heightnotes
2014-Apr-18 08:55 183 8 gusting 15 60.0
2014-Apr-18 07:55 185 7 gusting 15 60.0
2014-Apr-18 06:55 185 9 gusting 18 60.0
2014-Apr-18 05:55 187 12 gusting 19 60.0
2014-Apr-18 04:55 186 13 gusting 20 60.0
2014-Apr-18 03:55 187 12 gusting 20 60.0
2014-Apr-18 02:55 187 11 gusting 21 60.0
2014-Apr-18 01:55 186 11 gusting 24 60.0
2014-Apr-18 00:55 186 9 gusting 22 60.0
2014-Apr-17 23:55 186 9 gusting 21 60.0
2014-Apr-17 22:55 186 7 gusting 21 60.0
2014-Apr-17 21:55 185 6 gusting 17 60.0
2014-Apr-17 20:55 185 8 gusting 18 60.0
2014-Apr-17 19:55 186 7 gusting 16 60.0
2014-Apr-17 18:55 186 6 gusting 13 60.0
2014-Apr-17 17:55 184 4 gusting 7 60.0
2014-Apr-17 16:55 60.0
2014-Apr-17 15:55 187 1 gusting 7 60.0
2014-Apr-17 14:55 187 4 gusting 7 60.0
2014-Apr-17 13:55 187 4 gusting 7 60.0
2014-Apr-17 12:55 187 5 gusting 7 60.0
2014-Apr-17 11:55 187 5 gusting 7 60.0
2014-Apr-17 10:55 187 6 gusting 8 60.0
2014-Apr-17 09:55 187 5 gusting 7 60.0
2014-Apr-17 08:55 187 5 gusting 7 60.0
2014-Apr-17 07:55 187 5 gusting 7 60.0
2014-Apr-17 06:55 187 5 gusting 7 60.0
2014-Apr-17 05:55 187 5 gusting 8 60.0
2014-Apr-17 04:55 187 5 gusting 8 60.0
2014-Apr-17 03:55 187 4 gusting 7 60.0
2014-Apr-17 02:55 60.0
2014-Apr-17 01:55 60.0
2014-Apr-17 00:55 60.0
2014-Apr-16 23:55 186 3 gusting 7 60.0
2014-Apr-16 22:55 186 4 gusting 8 60.0
2014-Apr-16 21:55 186 3 gusting 13 60.0
2014-Apr-16 20:55 187 3 gusting 7 60.0
2014-Apr-16 19:55 185 1 gusting 6 60.0
2014-Apr-16 18:55 60.0
2014-Apr-16 17:55 60.0
2014-Apr-16 16:55 60.0
2014-Apr-16 15:55 60.0
2014-Apr-16 14:55 187 2 gusting 4 60.0
2014-Apr-16 13:55 187 3 gusting 6 60.0
2014-Apr-16 12:55 187 0 gusting 3 60.0
2014-Apr-16 11:55 60.0
2014-Apr-16 10:55 187 0 gusting 5 60.0